COSMOS 2517 (GEO-IK)

Satellite information

Favourite Embed

Satellite Type and Status

PAYLOADIN ORBIT

Key statistics

Satellite COSMOS 2517 (GEO-IK) at a glance.

Uptime

3375

Days in orbit

Revolutions

≈ 13.9

Per day

Orbit

SSO

Sun Synchronous Orbit

Inclination

99.2

Latest

Satellite identification and parameters

Extended collection of information and parameters for COSMOS 2517 (GEO-IK).

Object identification

Identified? True

Debris? False

Object name: COSMOS 2517 (GEO-IK)

International designator: 2016-034A

Object number (NORAD): 41579

Object ID (CCSDS): 41579

Country: COMMONWEALTH OF INDEPENDENT STATES (CIS)

Current information (Y/N): Y

RCS size: LARGE

Orbital parameters

Period: 103.903 minutes

Inclination: 99.1952 deg

SMA: 7321.149 km

Apoapsis: 943.756 km

Periapsis: 942.272 km

RAAN: 252.2228 deg

Eccentricy: 0.00010138

Argument of periapsis: 77.286 deg

Mean anomaly: 282.841 deg

Mean motion: 13.85906343 rev/day

Mean motion (dot): 0.00000026 rev/day2

B* drag term: 0.000060417484 1/REarth

Two-line elements (TLE)

Creation date: Aug. 31, 2025, 2:26 a.m.

Reference frame: TEME

Reference center: EARTH

Epoch: Aug. 30, 2025, 11:55 p.m. UTC

TLE line 0: 0 COSMOS 2517 (GEO-IK)

TLE line 1: 1 41579U 16034A 25242.99700900 .00000026 00000-0 60417-4 0 9999

TLE line 2: 2 41579 99.1952 252.2228 0001014 77.2860 282.8410 13.85906343467433

Live tracking on map

Real-time ground track for satellite COSMOS 2517 (GEO-IK).

In-orbit conjunctions

There are no conjunctions computed for COSMOS 2517 (GEO-IK), at the moment. Check back to stay up to date, as we update our databases every day.

Go to all conjunctions

Associated space launch

Geo-IK-2 will conduct high precision geodesic measurements to improve our understanding and models of the earth. Using GLONASS for accurate positioning data, the 1400kg satellite will operate in a 1000km polar orbit.

COSMOS 2517 (GEO-IK) was lifted into orbit during the mission ‘Rokot/Briz-KM | Geo-IK-2 No.12L (Kosmos 2517)’, on board a Rokot/Briz-KM space rocket.

The launch took place on June 4, 2016, 2 p.m. from 133/3 (133L).

For more information about the launch, click the button.

Launch to space Rokot/Briz-KM | Geo-IK-2 No.12L (Kosmos 2517)
Rokot/Briz-KM | Geo-IK-2 No.12L (Kosmos 2517)

Agency: N/A

Status: Launch Successful

Launch date: June 4, 2016, 2 p.m. UTC

Rocket: Rokot/Briz-KM

Launch pad: 133/3 (133L)

Location: Plesetsk Cosmodrome, Russian Federation

...

Latest news about this satellite

There are no fresh news available about this satellite. Check back as we update our databases every day.


Newsletter sign-up

Weekly statistics, charts and insights to help you stay on top of the space industry.